This demonstration page uses our WeatherBlox Daily Observations layout. Learn more.

Left ArrowRight Arrow

Hourly Observations for November 25, 2022

Temp ( °F °C ) Dew Point ( °F °C ) Humidity (%) Winds ( mph kmh ) Pressure ( in mb ) Visibility ( mi km ) Precip ( " mm )
12:56 am 00:56 Clear 24 -4.4 18 -7.8 77 77 WNW 9 15 30.43 1031 10 16 0.00 0.00
1:56 am 01:56 Clear 24 -4.4 17 -8.3 74 74 W 5 7 30.42 1030 10 16 0.00 0.00
2:56 am 02:56 Clear 25 -3.9 17 -8.3 71 71 NW 8 13 30.40 1030 10 16 0.00 0.00
3:56 am 03:56 Clear 22 -5.6 16 -8.9 77 77 WNW 7 11 30.40 1030 10 16 0.00 0.00
4:56 am 04:56 Clear 24 -4.4 17 -8.3 74 74 W 6 9 30.40 1029 10 16 0.00 0.00
5:56 am 05:56 Clear 22 -5.6 17 -8.3 81 81 WSW 5 7 30.41 1030 10 16 0.00 0.00
6:56 am 06:56 Clear 22 -5.6 17 -8.3 81 81 SW 8 13 30.42 1030 10 16 0.00 0.00
7:56 am 07:56 Sunny 22 -5.6 16 -8.9 77 77 SW 7 11 30.42 1030 10 16 0.00 0.00
8:56 am 08:56 Sunny 31 -0.6 20 -6.7 63 63 WSW 7 11 30.40 1030 10 16 0.00 0.00
9:56 am 09:56 Sunny 37 2.8 19 -7.2 48 48 WSW 8 13 30.38 1029 10 16 0.00 0.00
10:56 am 10:56 Sunny 44 6.7 21 -6.1 39 39 WSW 9 15 30.35 1028 10 16 0.00 0.00
11:56 am 11:56 Sunny 49 9.4 24 -4.4 37 37 SSW 9 15 30.32 1027 10 16 0.00 0.00
12:56 pm 12:56 Sunny 51 10.6 23 -5 33 33 SSW 12 19 30.28 1026 10 16 0.00 0.00
1:56 pm 13:56 Sunny 55 12.8 22 -5.6 27 27 SSW 15 24 30.24 1024 10 16 0.00 0.00
2:56 pm 14:56 Sunny 55 12.8 22 -5.6 27 27 SSW 15 24 30.22 1023 10 16 0.00 0.00
3:56 pm 15:56 Sunny 54 12.2 21 -6.1 27 27 SSW 12 19 30.22 1023 10 16 0.00 0.00
4:56 pm 16:56 Sunny 50 10 21 -6.1 32 32 SSW 8 13 30.21 1023 10 16 0.00 0.00
5:56 pm 17:56 Clear 43 6.1 19 -7.2 38 38 S 6 9 30.21 1023 10 16 0.00 0.00
6:56 pm 18:56 Clear 37 2.8 19 -7.2 48 48 S 8 13 30.19 1022 10 16 0.00 0.00
7:56 pm 19:56 Clear 38 3.3 20 -6.7 48 48 S 8 13 30.18 1022 10 16 0.00 0.00
8:56 pm 20:56 Clear 38 3.3 18 -7.8 44 44 SSW 9 15 30.15 1021 10 16 0.00 0.00
9:56 pm 21:56 Clear 37 2.8 17 -8.3 44 44 SSW 9 15 30.14 1021 10 16 0.00 0.00
10:56 pm 22:56 Clear 39 3.9 16 -8.9 39 39 SSW 12 19 30.10 1019 10 16 0.00 0.00
11:56 pm 23:56 Clear 37 2.8 16 -8.9 42 42 SSW 10 17 30.09 1019 10 16 0.00 0.00

Powered by AerisWeather